www.pogodaiklimat.ru

Погода и климат >> Архив погоды >> Россия >> Краснодарский край >> Новороссийск


АРХИВ ПОГОДЫ в Новороссийске

Время (UTC), дата Ветер
(напр.,м/с)
 
Видим.   Явления Облачность Т
(С)
Тd
(С)
f
(%)
Тe
(С)
Тes
(С)
Комфортность P
(гПа)
Po
(гПа)
Тmin
(С)
Tmax
(С)
R
(мм)
S
(см)
03 17.02 СЗ 2 10 км ясно -5.4 -9.6 72 -9 -9 холодно 1031.4 1031.0 -5.4 2
06 17.02 СВ 4 20 км ясно -3.3 -11.2 54 -9 -8 холодно 1030.5 1030.1 -6.2
09 17.02 СВ 6-10
{11}
20 км ясно -0.4 -11.2 44 -6 -4 холодно 1030.4 1030.0
12 17.02 СВ 5
{11}
20 км ясно +1.8 -10.1 41 -3 -1 прохладно 1029.3 1028.9
15 17.02 З 2 20 км ясно +1.1 -8.7 48 -2 -2 по сезону 1029.2 1028.8 +3.1
18 17.02 штиль 0 10 км ясно -1.7 -8.2 61 -2 -2 по сезону 1029.6 1029.2
21 17.02 ЮВ 2 10 км ясно +0.9 -7.2 55 -2 -2 по сезону 1029.2 1027.8
00 18.02 Ю 4 10 км 8/8 600 м
[Sc]
+2.3 -5.2 58 -2 -2 по сезону 1029.0 1028.6
03 18.02 Ю 5 10 км 8/8 600 м
[Sc]
+3.5 -3.2 62 -1 -1 по сезону 1027.7 1027.3 -2.2
06 18.02 Ю 5
{10}
20 км 9/9 600 м
[Sc]
+4.1 -3.1 59 -0 -0 по сезону 1026.5 1026.1
09 18.02 Ю 4
{10}
20 км 9/9 600 м
[Cu Sc]
+5.0 -1.9 61 +1 +2 по сезону 1026.3 1025.9
12 18.02 Ю 4 20 км 10/10 600 м
[Cu Sc]
+5.5 -1.9 59 +2 +2 по сезону 1025.6 1025.2
15 18.02 ЮВ 3 20 км 9/9 600 м
[Sc]
+5.2 -0.3 68 +2 +2 по сезону 1025.2 1023.8 +5.9
18 18.02 Ю 2 10 км 8/8 600 м
[Sc]
+5.4 -1.0 63 +3 +3 тепло 1025.9 1025.5
21 18.02 Ю 2 10 км 8/8 600 м
[Sc]
+5.5 -0.3 66 +3 +3 тепло 1026.2 1025.8
00 19.02 ЮВ 3 65 км 8/8 600 м
[Sc]
+5.9 +0.5 68 +3 +3 тепло 1026.4 1026.0
03 19.02 Ю 2 10 км 9/9 600 м
[Sc]
+6.7 +2.9 77 +5 +5 тепло 1027.0 1026.6 +5.2
06 19.02 Ю 3 20 км 10/10 600 м
[Sc]
+7.3 +4.3 81 +4 +4 тепло 1028.8 1028.4
09 19.02 Ю 2 20 км 10/10 600 м
[Sc]
+7.5 +3.2 74 +6 +6 тепло 1029.9 1029.5
12 19.02 Ю 3 20 км 8/8 600 м
[Sc]
+8.4 +5.3 81 +6 +7 тепло 1029.5 1029.1
15 19.02 Ю 1 20 км 8/4 600 м
[Sc Ac As Ci fib]
+7.3 +4.8 84 +6 +6 тепло 1028.8 1028.4 +8.8
18 19.02 В 2 10 км 6/0
[Ac trans Ci sp]
+6.5 +1.8 72 +4 +4 тепло 1028.5 1028.1
21 19.02 В 2 10 км 3/0
[Ac As]
+6.3 +0.1 64 +4 +4 тепло 1028.4 1028.0
00 20.02 штиль 0 10 км 3/0
[Ac trans]
+3.9 -3.0 61 +3 +3 тепло 1026.7 1025.3
03 20.02 штиль 0 10 км ясно +2.9 -2.6 67 +2 +2 тепло 1026.5 1026.1 +2.9
06 20.02 штиль 0 20 км 9/0
[Ac trans Cc]
+3.7 -1.6 68 +3 +5 тепло 1025.7 1025.3 +2.2
09 20.02 штиль 0 20 км 10/0
[Ci fib]
+9.4 -2.2 44 +9 +17 тепло 1024.4 1024.0
12 20.02 Ю 2 20 км 10/0
[Ci fib]
+10.5 +2.1 56 +9 +13 тепло 1022.0 1021.6
15 20.02 СВ 1 20 км 10/0
[Ac trans Cc]
+9.5 -0.2 51 +9 +9 тепло 1020.1 1019.7 +11.1
18 20.02 СВ 1 10 км 10/0
[Cc]
+6.3 -4.8 45 +6 +6 тепло 1018.9 1018.5
21 20.02 штиль 0 10 км 10/0
[Ci fib]
+4.8 -4.7 50 +4 +4 тепло 1017.6 1017.2
00 21.02 ЮЗ 2 10 км 10/6 600 м
[Sc Ci sp]
+7.9 +4.3 78 +6 +6 тепло 1016.9 1016.5
03 21.02 Ю 3 10 км слабый ливневой дождь 10/10 300 м
[Cb cap]
+7.3 +5.8 90 +4 +4 тепло 1016.2 1015.8 +4.3 1
06 21.02 ЮЗ 3 20 км {ливн. осадки} 10/10 600 м
[Cb calv]
+6.8 +2.2 72 +4 +4 тепло 1016.2 1015.8
09 21.02 ЮЗ 4 20 км 10/10 600 м
[Cb calv]
+7.4 +2.7 72 +4 +4 тепло 1016.2 1015.8
12 21.02 ЮЗ 4
{10}
20 км в посл. час ливневой дождь 10/10 600 м
[Cb calv]
+6.8 +3.0 77 +3 +3 по сезону 1015.2 1014.8
15 21.02 ЮЗ 5
{11}
20 км {ливн. осадки} 10/10 600 м
[Cb calv]
+6.2 +3.3 82 +2 +2 по сезону 1014.4 1014.0 +7.4 3
18 21.02 ЮЗ 4
{10}
10 км слабый ливневой дождь 10/10 600 м
[Cb cap]
+6.4 +4.1 85 +3 +3 по сезону 1013.5 1013.1
21 21.02 ЮЗ 3 10 км {ливн. осадки} 10/10 600 м
[Cb calv]
+6.9 +3.6 79 +4 +4 тепло 1013.4 1013.0
00 22.02 ЮЗ 5
{11}
10 км {ливн. осадки} 10/10 600 м
[Cb calv]
+7.2 +3.4 77 +3 +3 тепло 1013.5 1013.1
03 22.02 ЮЗ 6
{11}
10 км 10/10 600 м
[Sc]
+7.4 +4.1 80 +3 +3 тепло 1012.3 1011.9 +6.2 0.5
06 22.02 Ю 7
{11}
20 км 10/10 600 м
[Sc]
+7.5 +6.2 91 +3 +3 тепло 1012.2 1011.8
09 22.02 ЮЗ 6-12
{12}
4000 м ливневой дождь 10/10 600 м
[Cb cap]
+7.4 +6.2 92 +3 +3 по сезону 1010.6 1010.2
12 22.02 ЮЗ 5-12
{13}
10 км слабый ливневой дождь 10/10 600 м
[Cb cap]
+6.3 +4.7 89 +2 +2 по сезону 1009.5 1009.1
15 22.02 С 1
{12}
20 км слабый ливневой дождь 10/10 600 м
[Cb cap]
+5.4 +3.7 89 +4 +4 по сезону 1009.5 1009.1 +7.7 12
18 22.02 СЗ 1 10 км {ливн. осадки} 9/9 600 м
[Cb cap]
+4.9 +3.0 87 +4 +4 тепло 1012.8 1012.4
21 22.02 СВ 1 10 км слабый ливневой дождь 10/10 600 м
[Cb cap]
+5.3 +2.9 84 +4 +4 тепло 1014.8 1014.4
00 23.02 СВ 2 10 км {ливн. осадки} 6/0
[Ac cuf]
+4.0 +3.2 95 +1 +1 по сезону 1015.5 1015.1
03 23.02 З 2 10 км 8/0
[Ac cuf]
+7.2 +4.1 81 +5 +5 тепло 1016.2 1015.8 +3.8 2
06 23.02 Ю 5
{10}
20 км 10/6 600 м
[Cb calv Ac und Cs]
+7.1 +5.3 88 +3 +3 тепло 1015.3 1014.9
09 23.02 Ю 7-13
{14}
20 км 10/10 600 м
[Sc]
+7.0 +4.5 84 +2 +2 по сезону 1014.2 1013.8
12 23.02 Ю 6-12
{13}
10 км слабый ливневой дождь 10/10 300 м
[Frnb Ns]
+7.5 +5.9 90 +3 +3 по сезону 1012.7 1012.3
15 23.02 Ю 7-12
{13}
10 км слабый ливневой дождь 10/10 300 м
[Cb cap]
+7.8 +7.0 95 +3 +3 по сезону 1011.8 1011.4 +7.8 2
18 23.02 Ю 6-12
{13}
10 км слабый ливневой дождь 10/10 600 м
[Cb cap]
+8.5 +6.8 89 +4 +4 тепло 1012.1 1011.7
21 23.02 Ю 2
{12}
10 км {ливн. осадки} 10/5 300 м
[Frnb Ac As]
+8.6 +7.1 90 +7 +7 тепло 1013.1 1012.7
00 24.02 Ю 2 10 км {ливн. осадки} 10/10 600 м
[Sc]
+8.5 +6.5 87 +7 +7 тепло 1014.0 1013.6

 

Местоположение метеостанции Новороссийск (Краснодарский край, Россия): широта 44.72 долгота 37.85 высота над уровнем моря 3 м.

В архиве по умолчанию представлена погода в Новороссийске за последнюю неделю. Архивные данные за месяц целиком и за предыдущие месяцы, начиная с января 2011 года, Вы можете получить, выбрав интересующий диапазон дат из раскрывающегося списка и нажав кнопку "Ввод!".

Внимание! Время в таблицах - всемирное. Для получения местного времени необходимо прибавить поправку, которая в Новороссийске равна 3 ч.

Смотрите также архив погоды в соседних городах и на ближайших метеорологических станциях:

Погода в Геленджике (Краснодарский край, Россия) (25 км)
Погода в Крымске (Краснодарский край, Россия) (25 км)
Погода в Анапе (Краснодарский край, Россия) (48 км)
Погода в Славянске-на-Кубани (Краснодарский край, Россия) (66 км)
Погода в Темрюке (Краснодарский край, Россия) (76 км)
Погода в Джубге (Краснодарский край, Россия) (81 км)
Погода в Горячем Ключе (Краснодарский край, Россия) (99 км)
Погода в Краснодаре (Краснодарский край, Россия) (100 км)
Погода в Тамани (Краснодарский край, Россия) (105 км)
Погода в Туапсе (Краснодарский край, Россия) (119 км)

Пояснения к столбцам:

Ветер - указаны скорость ветра в м/с - средняя за 10 мин, порывы в срок и между сроками (в фигурных скобках) и направление, откуда дует ветер: С - северный, СВ - северо-восточный, В - восточный, ЮВ - юго-восточный, Ю - южный, ЮЗ - юго-западный, З - западный, СЗ - северо-западный.
Видимость - горизонтальная дальность видимости в метрах или километрах. При видимости от 1 до 10 км при отсутствии осадков обычно наблюдается дымка, при ухудшении видимости до 1 км и менее - туман. В сухую погоду видимость может ухудшаться дымом, пылью или мглою.
Явления - указаны атмосферные явления, наблюдавшиеся в срок или в последний час перед сроком; фигурными скобками обозначены явления, наблюдавшиеся между сроками (за 1-3 часа до срока); квадратными скобками обозначены град или гололедные отложения с указанием их диаметра в мм.
Облачность - указаны через наклонную черту общая и нижняя облачность в баллах и высота нижней границы облаков в метрах; квадратными скобками обозначены формы облаков: Ci - перистые, Cs - перисто-слоистые, Cc - перисто-кучевые, Ac - высококучевые, As - высокослоистые, Sc - слоисто-кучевые, Ns - слоисто-дождевые, Cu - кучевые, Cb - кучево-дождевые. Подробнее классификацию облаков см. в Атласе облаков (PDF).
T - Температура воздуха - температура, измеренная на высоте 2 м над землей.
Td - Температура точки росы - температура, при понижении до которой содержащийся в воздухе водяной пар достигнет насыщения.
f - Относительная влажность воздуха - влажноcть воздуха, измеренная на высоте 2 м над землей.
Te - Эффективная температура - температура, которую ощущает одетый по сезону человек в тени. Характеристика душности погоды. При расчете учитывается влияние влажности воздуха и скорости ветра на теплоощущения человека.
Tes - Эффективная температура на солнце - температура, которую ощущает человек, с поправкой на солнечный нагрев. Характеристика знойности погоды. Зависит от высоты солнца над горизонтом, облачности и скорости ветра. Ночью, в пасмурную погоду, а также при ветре 12 м/с и более поправка равна нулю.
P - Атмосферное давление - приведенное к уровню моря атмосферное давление.
Po - Атмосферное давление - измеренное на уровне метеостанции атмосферное давление.
Tmin - Минимальная температура - минимум температуры воздуха на высоте 2 м над землей.
Tmax - Максимальная температура - максимум температуры воздуха на высоте 2 м над землей.
R - Количество осадков - Количество выпавших осадков, мм. При наведении курсора мыши на число - период времени, за который выпало указанное количество осадков.
S - Снежный покров - Высота снежного покрова, см. При наведении курсора мыши на число - состояние снежного покрова и степень покрытия местности в баллах.